This is the latest recevied weather packets stored in our database for station/object KN6DHD. If no packets are shown the sender has not sent any weather packets the latest 10 day(s).
| Time | Temp. | Humidity | Pressure | Rain* | Wind** | Luminosity | Snow |
|---|---|---|---|---|---|---|---|
| 1777738991 | 16.11° C | 80% | 1013.5 hPa | 0 mm | - | 155 W/m² | - |
| 1777738688 | 15.56° C | 80% | 1013.4 hPa | 0 mm | - | 158 W/m² | - |
| 1777738384 | 15.56° C | 80% | 1013.3 hPa | 0 mm | - | 150 W/m² | - |
| 1777738082 | 15.56° C | 81% | 1013.2 hPa | 0 mm | - | 161 W/m² | - |
| 1777737781 | 15.56° C | 81% | 1013.3 hPa | 0 mm | - | 152 W/m² | - |
| 1777737479 | 15.56° C | 81% | 1013.4 hPa | 0 mm | - | 161 W/m² | - |
| 1777737176 | 15.56° C | 82% | 1013.2 hPa | 0 mm | - | 163 W/m² | - |
| 1777736871 | 15° C | 83% | 1013.3 hPa | 0 mm | - | 161 W/m² | - |
| 1777736264 | 15° C | 85% | 1013.3 hPa | 0 mm | - | 148 W/m² | - |
| 1777735955 | 14.44° C | 86% | 1013 hPa | 0 mm | - | 150 W/m² | - |
| 1777735652 | 14.44° C | 87% | 1013 hPa | 0 mm | - | 118 W/m² | - |
| 1777735350 | 13.89° C | 88% | 1013.1 hPa | 0 mm | - | 131 W/m² | - |
| 1777735047 | 13.89° C | 88% | 1013.1 hPa | 0 mm | - | 93 W/m² | - |
| 1777734744 | 13.89° C | 88% | 1012.9 hPa | 0 mm | - | 84 W/m² | - |
| 1777734442 | 13.89° C | 88% | 1013.2 hPa | 0 mm | - | 79 W/m² | - |
| 1777734138 | 13.33° C | 89% | 1013 hPa | 0 mm | - | 76 W/m² | - |
| 1777733835 | 13.33° C | 89% | 1013 hPa | 0 mm | - | 66 W/m² | - |
| 1777733531 | 13.33° C | 89% | 1013.1 hPa | 0 mm | - | 62 W/m² | - |
| 1777733228 | 13.33° C | 90% | 1012.8 hPa | 0 mm | - | 60 W/m² | - |
| 1777732925 | 13.33° C | 90% | 1012.9 hPa | 0 mm | - | 58 W/m² | - |
| 1777732621 | 12.78° C | 90% | 1012.7 hPa | 0 mm | - | 52 W/m² | - |
| 1777732318 | 12.78° C | 90% | 1012.7 hPa | 0 mm | - | 46 W/m² | - |
| 1777732015 | 12.78° C | 91% | 1012.7 hPa | 0 mm | - | 40 W/m² | - |
| 1777731712 | 12.78° C | 91% | 1012.9 hPa | 0 mm | - | 36 W/m² | - |
| 1777731409 | 12.78° C | 91% | 1012.6 hPa | 0 mm | - | 31 W/m² | - |
* Rain latest hour (hover to see other rain measurements)
** Current wind speed in m/s (hover to see current wind gust speed)